Location: Dal�� Lhota
(48.7500°N, 14.0167°E)
Time: 23:16:36
(UTC+00:00)

Transit 2A - Pass Details

Date: 31 July 2021
Orbit: 594 x 964 km, 66.7° (Epoch: 26 September)

Event Time Altitude Azimuth Distance (km) Brightness Sun altitude
Rises 14:28:57 0° 321° (NW) 3,226 9.4 39.7°
Reaches altitude 10° 14:31:17 10° 316° (NW) 2,353 8.9 39.4°
Maximum altitude 14:36:33 52° 242° (WSW) 1,044 8.7 38.6°
Drops below altitude 10° 14:42:19 10° 167° (SSE) 2,571 8.9 37.7°
Sets 14:44:59 0° 163° (SSE) 3,551 9.4 37.2°
